TimeCDT,TemperatureF,Dew PointF,Humidity,Sea Level PressureIn,VisibilityMPH,Wind Direction,Wind SpeedMPH,Gust SpeedMPH,PrecipitationIn,Events,Conditions,WindDirDegrees,DateUTC
12:55 AM,68.0,57.0,68,30.05,10.0,South,9.2,-,N/A,,Clear,190,2012-09-12 05:55:00
1:55 AM,66.9,57.0,70,30.06,10.0,South,8.1,-,N/A,,Clear,190,2012-09-12 06:55:00
2:55 AM,63.0,55.9,78,30.05,10.0,South,8.1,-,N/A,,Clear,170,2012-09-12 07:55:00
3:55 AM,61.0,55.9,83,30.05,10.0,South,6.9,-,N/A,,Clear,180,2012-09-12 08:55:00
4:55 AM,61.0,55.9,83,30.06,10.0,South,4.6,-,N/A,,Clear,180,2012-09-12 09:55:00
5:55 AM,59.0,55.0,87,30.07,10.0,South,3.5,-,N/A,,Clear,180,2012-09-12 10:55:00
6:55 AM,55.9,54.0,93,30.10,10.0,SSE,4.6,-,N/A,,Clear,150,2012-09-12 11:55:00
7:55 AM,63.0,59.0,87,30.12,10.0,South,5.8,-,N/A,,Clear,180,2012-09-12 12:55:00
8:55 AM,70.0,60.1,71,30.12,10.0,South,9.2,-,N/A,,Clear,190,2012-09-12 13:55:00
9:55 AM,73.9,59.0,59,30.14,10.0,SSW,12.7,-,N/A,,Clear,210,2012-09-12 14:55:00
10:55 AM,77.0,61.0,58,30.13,10.0,South,9.2,-,N/A,,Clear,190,2012-09-12 15:55:00
11:55 AM,81.0,61.0,50,30.12,10.0,SW,9.2,-,N/A,,Clear,220,2012-09-12 16:55:00
12:55 PM,82.9,61.0,47,30.09,10.0,South,10.4,-,N/A,,Clear,180,2012-09-12 17:55:00
1:55 PM,84.0,59.0,43,30.07,10.0,SSW,8.1,18.4,N/A,,Clear,200,2012-09-12 18:55:00
2:55 PM,84.9,57.9,40,30.06,10.0,South,13.8,23.0,N/A,,Partly Cloudy,170,2012-09-12 19:55:00
3:55 PM,84.9,55.9,37,30.05,10.0,South,11.5,-,N/A,,Clear,190,2012-09-12 20:55:00
4:55 PM,84.0,57.9,41,30.05,10.0,South,10.4,-,N/A,,Clear,180,2012-09-12 21:55:00
5:55 PM,82.9,57.9,42,30.06,10.0,South,6.9,-,N/A,,Partly Cloudy,180,2012-09-12 22:55:00
6:55 PM,75.0,61.0,62,30.06,10.0,South,4.6,-,N/A,,Clear,180,2012-09-12 23:55:00
7:55 PM,70.0,59.0,68,30.07,10.0,SE,5.8,-,N/A,,Scattered Clouds,140,2012-09-13 00:55:00
8:55 PM,69.1,57.9,68,30.08,10.0,SE,6.9,-,N/A,,Clear,140,2012-09-13 01:55:00
9:55 PM,69.1,57.9,68,30.08,10.0,SSE,10.4,-,N/A,,Clear,160,2012-09-13 02:55:00
10:55 PM,66.0,57.9,75,30.10,10.0,SSE,8.1,-,N/A,,Clear,160,2012-09-13 03:55:00
11:55 PM,64.0,57.0,78,30.11,10.0,South,5.8,-,N/A,,Clear,170,2012-09-13 04:55:00